M I D A S
Marine Information and Data Acquisition System
Tripno 310 of the Zeeleeuw from 2002-08-26 06:38:59 to 2002-08-26 12:56:00
Back to CruiseResearch ActivitiesStationsMapUnderway DataData graphs

EquipmentUnitsComments
TimeDGPSUTC
LatitudeDGPSDM.mWGS84
LongitudeDGPSDM.mWGS84
SpeedMeteo Stationm/sRelative wind speed
DirectionMeteo StationdegRelative wind direction
TemperatureMeteo Stationdeg CelciusAir temperature
PressureMeteo StationPaAtmospheric pressure
HumidityMeteo Station%Relative humidity
Missing or incorrect values are displayed as -999
Metereological data collected by the RV Zeeleeuw from 2002-08-26 06:38:59 to 2002-08-26 12:56:00
                                                                                    Next 1000 lines
Time Latitude Longitude Speed Direction Temperature Pressure Humidity
2002-08-26 06:39:06 51°13.662 2°55.955 6.8 315 18.1 102110 77
2002-08-26 06:39:11 51°13.662 2°55.955 2.9 320 18.1 102110 77
2002-08-26 06:39:16 51°13.661 2°55.955 2.6 320 18.1 102120 77
2002-08-26 06:39:21 51°13.662 2°55.954 3.6 34 18.1 102120 77
2002-08-26 06:39:26 51°13.662 2°55.954 4.4 360 18.1 102120 77
2002-08-26 06:39:31 51°13.662 2°55.952 4.6 354 18.1 102120 77
2002-08-26 06:39:36 51°13.663 2°55.95 4.3 327 18.1 102110 77
2002-08-26 06:39:41 51°13.664 2°55.948 3.8 351 18.1 102110 77
2002-08-26 06:39:46 51°13.665 2°55.945 4 336 18.1 102110 77
2002-08-26 06:39:51 51°13.666 2°55.942 3.9 343 18.1 102110 77
2002-08-26 06:39:56 51°13.667 2°55.938 1.6 329 18.1 102130 77
2002-08-26 06:40:02 51°13.668 2°55.932 4.5 328 18.1 102130 77
2002-08-26 06:40:07 51°13.67 2°55.927 4.3 344 18.1 102120 77
2002-08-26 06:40:12 51°13.671 2°55.922 1.7 15 18.1 102120 77
2002-08-26 06:40:16 51°13.672 2°55.917 3 11 18.2 102120 77
2002-08-26 06:40:22 51°13.673 2°55.909 3.1 323 18.2 102120 77
2002-08-26 06:40:27 51°13.674 2°55.903 3 319 18.1 102120 77
2002-08-26 06:40:32 51°13.676 2°55.896 3.9 332 18.1 102120 77
2002-08-26 06:40:36 51°13.677 2°55.891 3.9 341 18.1 102120 77
2002-08-26 06:40:42 51°13.678 2°55.882 1.6 319 18.1 102120 77
2002-08-26 06:40:47 51°13.679 2°55.875 1.5 2 18.1 102130 77
2002-08-26 06:40:52 51°13.68 2°55.868 2.9 314 18.1 102130 77
2002-08-26 06:40:56 51°13.681 2°55.863 8.2 309 18.1 102130 77
2002-08-26 06:41:02 51°13.682 2°55.854 2.2 300 18.1 102130 77
2002-08-26 06:41:07 51°13.683 2°55.847 1.4 330 18.1 102130 77
2002-08-26 06:41:11 51°13.684 2°55.842 3.9 320 18.1 102130 77
2002-08-26 06:41:16 51°13.685 2°55.835 5.7 286 18.1 102130 77
2002-08-26 06:41:21 51°13.686 2°55.828 2 17 18.1 102130 77
2002-08-26 06:41:26 51°13.686 2°55.822 3 10 18.1 102120 76
2002-08-26 06:41:31 51°13.686 2°55.815 1.5 325 18.1 102120 76
2002-08-26 06:41:36 51°13.687 2°55.809 1.8 301 18.1 102120 76
2002-08-26 06:41:40 51°13.687 2°55.804 3 325 18.1 102120 76
2002-08-26 06:41:46 51°13.687 2°55.797 3.2 20 18.1 102120 76
2002-08-26 06:41:51 51°13.687 2°55.791 1.4 354 18.1 102120 76
2002-08-26 06:41:56 51°13.687 2°55.785 2.8 299 18.1 102110 76
2002-08-26 06:42:00 51°13.687 2°55.781 2.4 342 18.1 102110 76
2002-08-26 06:42:06 51°13.687 2°55.775 1.5 297 18.1 102120 76
2002-08-26 06:42:11 51°13.687 2°55.77 3.3 304 18.1 102120 76
2002-08-26 06:42:16 51°13.687 2°55.766 4.8 294 18.1 102110 76
2002-08-26 06:42:20 51°13.687 2°55.762 2.4 328 18.1 102110 76
2002-08-26 06:42:26 51°13.687 2°55.758 1.2 313 18.1 102120 76
2002-08-26 06:42:31 51°13.687 2°55.755 2.6 318 18.1 102120 76
2002-08-26 06:42:36 51°13.686 2°55.752 2.4 316 18.1 102120 76
2002-08-26 06:42:40 51°13.686 2°55.75 5.1 302 18.1 102120 76
2002-08-26 06:42:46 51°13.686 2°55.747 3.1 289 18.1 102120 76
2002-08-26 06:42:51 51°13.687 2°55.746 2.1 292 18.1 102120 76
2002-08-26 06:42:56 51°13.687 2°55.745 4.2 296 18.1 102120 76
2002-08-26 06:43:00 51°13.686 2°55.744 8.1 284 18.1 102120 76
2002-08-26 06:43:06 51°13.686 2°55.743 7.5 287 18.1 102120 77
2002-08-26 06:43:11 51°13.687 2°55.743 6.1 277 18.1 102120 77
2002-08-26 06:43:16 51°13.687 2°55.743 8 281 18.1 102120 77
2002-08-26 06:43:20 51°13.687 2°55.744 8.8 282 18.1 102120 77
2002-08-26 06:43:26 51°13.689 2°55.746 7.8 272 18.2 102120 77
2002-08-26 06:43:31 51°13.69 2°55.747 6.8 257 18.2 102120 77
2002-08-26 06:43:36 51°13.693 2°55.749 7.8 246 18.1 102110 77
2002-08-26 06:43:40 51°13.695 2°55.751 8.9 250 18.1 102110 77
2002-08-26 06:43:46 51°13.699 2°55.752 8.6 240 18.2 102110 77
2002-08-26 06:43:52 51°13.703 2°55.753 7.6 219 18.2 102110 77
2002-08-26 06:43:56 51°13.706 2°55.753 6.7 135 18.2 102110 77
2002-08-26 06:44:00 51°13.71 2°55.753 5 231 18.2 102110 77
2002-08-26 06:44:06 51°13.715 2°55.751 5.3 226 18.1 102110 77
2002-08-26 06:44:11 51°13.72 2°55.748 7.6 219 18.1 102110 77
2002-08-26 06:44:16 51°13.725 2°55.745 5.2 206 18.1 102110 77
2002-08-26 06:44:20 51°13.729 2°55.74 6.3 206 18.1 102110 77
2002-08-26 06:44:26 51°13.735 2°55.734 6.5 215 18.1 102120 77
2002-08-26 06:44:31 51°13.741 2°55.727 6.6 178 18.1 102120 77
2002-08-26 06:44:36 51°13.747 2°55.72 5.3 179 18.1 102110 77
2002-08-26 06:44:40 51°13.752 2°55.714 8 195 18.1 102110 77
2002-08-26 06:44:46 51°13.76 2°55.704 7.9 175 18.1 102110 77
2002-08-26 06:44:51 51°13.768 2°55.696 4.4 189 18.1 102110 77
2002-08-26 06:44:56 51°13.776 2°55.687 6.7 222 18.1 102110 77
2002-08-26 06:45:02 51°13.786 2°55.677 12.2 198 18.1 102110 77
2002-08-26 06:45:06 51°13.793 2°55.67 12 189 18.1 102110 77
2002-08-26 06:45:11 51°13.802 2°55.661 10.8 211 18.1 102110 77
2002-08-26 06:45:16 51°13.811 2°55.653 11.4 211 18.1 102110 77
2002-08-26 06:45:20 51°13.819 2°55.647 12.1 200 18.1 102110 77
2002-08-26 06:45:26 51°13.83 2°55.637 9.4 208 18.2 102110 77
2002-08-26 06:45:31 51°13.84 2°55.628 10.4 205 18.2 102110 77
2002-08-26 06:45:36 51°13.85 2°55.62 11.4 210 18.1 102110 77
2002-08-26 06:45:42 51°13.863 2°55.609 9.3 194 18.1 102110 77
2002-08-26 06:45:46 51°13.871 2°55.602 11 204 18.1 102110 77
2002-08-26 06:45:51 51°13.882 2°55.594 9.4 197 18.1 102110 77
2002-08-26 06:45:56 51°13.893 2°55.586 11.6 199 18.2 102110 77
2002-08-26 06:46:00 51°13.902 2°55.58 9.3 205 18.2 102110 77
2002-08-26 06:46:06 51°13.914 2°55.569 11 196 18.2 102100 77
2002-08-26 06:46:12 51°13.928 2°55.56 11.6 197 18.2 102100 77
2002-08-26 06:46:16 51°13.937 2°55.553 10.5 200 18.1 102100 77
2002-08-26 06:46:20 51°13.946 2°55.546 9.6 197 18.1 102100 77
2002-08-26 06:46:26 51°13.959 2°55.537 9 211 18.2 102100 77
2002-08-26 06:46:31 51°13.97 2°55.529 12.4 206 18.2 102100 77
2002-08-26 06:46:36 51°13.981 2°55.52 12.8 208 18.2 102100 77
2002-08-26 06:46:40 51°13.99 2°55.514 10.8 199 18.2 102100 77
2002-08-26 06:46:46 51°14.004 2°55.503 10.4 206 18.2 102110 77
2002-08-26 06:46:51 51°14.015 2°55.495 11.4 197 18.2 102110 77
2002-08-26 06:46:56 51°14.026 2°55.486 13 200 18.2 102100 77
2002-08-26 06:47:00 51°14.035 2°55.48 12.4 201 18.2 102100 77
2002-08-26 06:47:06 51°14.048 2°55.47 11.4 199 18.1 102090 77
2002-08-26 06:47:11 51°14.059 2°55.461 10.9 206 18.1 102090 77
2002-08-26 06:47:16 51°14.07 2°55.452 13 200 18.1 102100 77
2002-08-26 06:47:20 51°14.079 2°55.445 11 198 18.1 102100 77
2002-08-26 06:47:26 51°14.092 2°55.435 11.9 199 18.1 102090 77
2002-08-26 06:47:31 51°14.103 2°55.426 11.6 208 18.1 102090 77
2002-08-26 06:47:36 51°14.114 2°55.417 12.3 186 18.2 102090 77
2002-08-26 06:47:41 51°14.125 2°55.409 11.2 207 18.2 102090 77
2002-08-26 06:47:46 51°14.136 2°55.4 11.3 198 18.2 102090 77
2002-08-26 06:47:51 51°14.146 2°55.391 11.9 204 18.2 102090 77
2002-08-26 06:47:56 51°14.157 2°55.382 12.3 207 18.2 102090 78
2002-08-26 06:48:00 51°14.166 2°55.375 12 196 18.2 102090 78
2002-08-26 06:48:06 51°14.178 2°55.362 9.9 196 18.2 102090 78
2002-08-26 06:48:11 51°14.189 2°55.352 11.3 193 18.2 102090 78
2002-08-26 06:48:16 51°14.199 2°55.341 13.4 185 18.2 102090 78
2002-08-26 06:48:19 51°14.205 2°55.335 10.4 196 18.2 102090 78
2002-08-26 06:48:26 51°14.218 2°55.318 8.6 190 18.2 102100 78
2002-08-26 06:48:32 51°14.23 2°55.303 9.2 190 18.2 102100 78
2002-08-26 06:48:36 51°14.238 2°55.293 8 179 18.2 102090 78
2002-08-26 06:48:40 51°14.245 2°55.282 10.7 204 18.2 102090 78
2002-08-26 06:48:46 51°14.256 2°55.266 10.1 191 18.2 102090 78
2002-08-26 06:48:51 51°14.264 2°55.252 10.5 196 18.2 102090 78
2002-08-26 06:48:56 51°14.273 2°55.237 10.5 181 18.2 102100 79
2002-08-26 06:49:00 51°14.279 2°55.225 9.5 183 18.2 102100 79
2002-08-26 06:49:06 51°14.288 2°55.206 10.7 181 18.2 102100 79
2002-08-26 06:49:11 51°14.296 2°55.19 11.4 173 18.2 102100 79
2002-08-26 06:49:16 51°14.303 2°55.174 9.7 172 18.2 102100 79
2002-08-26 06:49:20 51°14.309 2°55.161 10.9 175 18.2 102100 79
2002-08-26 06:49:26 51°14.317 2°55.141 8.4 173 18.3 102100 79
2002-08-26 06:49:31 51°14.324 2°55.124 7.6 179 18.3 102100 79
2002-08-26 06:49:36 51°14.33 2°55.107 7.3 190 18.3 102100 79
2002-08-26 06:49:41 51°14.336 2°55.091 13 171 18.3 102100 79
2002-08-26 06:49:46 51°14.342 2°55.074 12.4 177 18.3 102090 79
2002-08-26 06:49:51 51°14.347 2°55.057 14.4 174 18.3 102090 79
2002-08-26 06:49:56 51°14.353 2°55.041 13.8 166 18.3 102100 79
2002-08-26 06:50:01 51°14.358 2°55.023 13.7 164 18.3 102100 79
2002-08-26 06:50:06 51°14.363 2°55.007 10.4 164 18.2 102100 79
2002-08-26 06:50:11 51°14.368 2°54.989 11.1 161 18.2 102100 79
2002-08-26 06:50:16 51°14.372 2°54.972 12.4 162 18.2 102080 78
2002-08-26 06:50:21 51°14.376 2°54.954 10.3 158 18.2 102080 78
2002-08-26 06:50:26 51°14.379 2°54.935 11.8 153 18.2 102080 78
2002-08-26 06:50:31 51°14.381 2°54.915 9.9 146 18.2 102080 78
2002-08-26 06:50:35 51°14.382 2°54.898 9.5 144 18.2 102080 78
2002-08-26 06:50:41 51°14.381 2°54.872 10.6 139 18.2 102080 78
2002-08-26 06:50:46 51°14.379 2°54.849 10.3 137 18.2 102080 79
2002-08-26 06:50:51 51°14.377 2°54.826 9 135 18.2 102080 79
2002-08-26 06:50:56 51°14.375 2°54.802 8.7 134 18.2 102080 78
2002-08-26 06:51:00 51°14.373 2°54.783 7.5 138 18.2 102080 78
2002-08-26 06:51:06 51°14.37 2°54.754 7.1 143 18.2 102100 78
2002-08-26 06:51:12 51°14.366 2°54.725 8.7 146 18.2 102100 78
2002-08-26 06:51:16 51°14.364 2°54.705 7.7 131 18.2 102090 78
2002-08-26 06:51:21 51°14.361 2°54.679 9.2 135 18.2 102090 78
2002-08-26 06:51:26 51°14.358 2°54.653 8.9 145 18.2 102090 78
2002-08-26 06:51:31 51°14.354 2°54.627 10.7 132 18.2 102090 78
2002-08-26 06:51:36 51°14.352 2°54.601 7.4 138 18.2 102100 78
2002-08-26 06:51:40 51°14.35 2°54.58 8.6 127 18.2 102100 78
2002-08-26 06:51:46 51°14.345 2°54.549 7.9 125 18.2 102100 78
2002-08-26 06:51:52 51°14.34 2°54.518 5.1 117 18.2 102100 78
2002-08-26 06:51:57 51°14.334 2°54.492 6.4 114 18.2 102100 78
2002-08-26 06:52:00 51°14.329 2°54.478 7.7 122 18.2 102100 78
2002-08-26 06:52:06 51°14.322 2°54.447 6.1 124 18.2 102100 78
2002-08-26 06:52:11 51°14.315 2°54.422 5.2 140 18.2 102100 78
2002-08-26 06:52:16 51°14.308 2°54.397 6.5 135 18.2 102100 78
2002-08-26 06:52:20 51°14.303 2°54.377 5.8 143 18.2 102100 78
2002-08-26 06:52:26 51°14.294 2°54.347 7.1 131 18.2 102110 78
2002-08-26 06:52:31 51°14.286 2°54.322 5.8 147 18.2 102110 78
2002-08-26 06:52:36 51°14.28 2°54.296 7.5 134 18.2 102110 78
2002-08-26 06:52:40 51°14.274 2°54.276 6.7 136 18.2 102110 78
2002-08-26 06:52:46 51°14.265 2°54.246 8.8 132 18.2 102110 78
2002-08-26 06:52:51 51°14.257 2°54.22 7.9 129 18.2 102110 78
2002-08-26 06:52:56 51°14.251 2°54.195 8.6 126 18.2 102110 79
2002-08-26 06:53:00 51°14.244 2°54.174 8.3 133 18.2 102110 79
2002-08-26 06:53:06 51°14.236 2°54.142 8.1 132 18.3 102110 79
2002-08-26 06:53:11 51°14.228 2°54.116 9.7 135 18.3 102110 79
2002-08-26 06:53:16 51°14.221 2°54.089 8.6 139 18.3 102100 78
2002-08-26 06:53:20 51°14.215 2°54.068 6.8 147 18.3 102100 78
2002-08-26 06:53:26 51°14.206 2°54.037 6.6 134 18.2 102110 78
2002-08-26 06:53:31 51°14.199 2°54.01 7.9 131 18.2 102110 78
2002-08-26 06:53:36 51°14.19 2°53.984 7.8 130 18.2 102110 78
2002-08-26 06:53:40 51°14.186 2°53.961 7.1 143 18.2 102110 78
2002-08-26 06:53:46 51°14.175 2°53.929 6.9 127 18.2 102100 78
2002-08-26 06:53:51 51°14.168 2°53.901 8.5 130 18.2 102100 78
2002-08-26 06:53:56 51°14.16 2°53.873 6.8 126 18.2 102100 78
2002-08-26 06:54:00 51°14.153 2°53.851 6.4 120 18.2 102100 78
2002-08-26 06:54:06 51°14.143 2°53.817 7.5 142 18.2 102100 78
2002-08-26 06:54:11 51°14.136 2°53.787 6.9 130 18.2 102100 78
2002-08-26 06:54:16 51°14.128 2°53.758 7 135 18.2 102110 78
2002-08-26 06:54:21 51°14.119 2°53.729 6.3 126 18.2 102110 78
2002-08-26 06:54:26 51°14.112 2°53.699 7.9 135 18.2 102100 78
2002-08-26 06:54:31 51°14.103 2°53.67 8.8 132 18.2 102100 78
2002-08-26 06:54:36 51°14.095 2°53.64 7.9 127 18.2 102100 78
2002-08-26 06:54:41 51°14.085 2°53.61 6.8 133 18.2 102100 78
2002-08-26 06:54:46 51°14.078 2°53.577 7.4 134 18.2 102110 79
2002-08-26 06:54:51 51°14.068 2°53.546 6.7 143 18.2 102110 79
2002-08-26 06:54:56 51°14.061 2°53.514 6.1 132 18.3 102110 79
2002-08-26 06:55:01 51°14.052 2°53.485 5.6 140 18.3 102110 79
2002-08-26 06:55:06 51°14.044 2°53.452 4.8 170 18.3 102110 79
2002-08-26 06:55:11 51°14.036 2°53.42 6.2 144 18.3 102110 79
2002-08-26 06:55:16 51°14.026 2°53.389 6.8 153 18.3 102110 79
2002-08-26 06:55:20 51°14.02 2°53.364 8.2 146 18.3 102110 79
2002-08-26 06:55:26 51°14.009 2°53.327 8.2 152 18.3 102110 79
2002-08-26 06:55:31 51°14.001 2°53.296 8.8 139 18.3 102110 79
2002-08-26 06:55:36 51°13.992 2°53.267 7.7 143 18.3 102100 79
2002-08-26 06:55:42 51°13.982 2°53.231 10.2 133 18.3 102100 79
2002-08-26 06:55:46 51°13.976 2°53.208 8.9 134 18.3 102110 79
2002-08-26 06:55:51 51°13.967 2°53.178 8.8 140 18.3 102110 79
2002-08-26 06:55:56 51°13.959 2°53.149 6.8 134 18.3 102100 79
2002-08-26 06:56:02 51°13.949 2°53.115 6.7 129 18.3 102100 79
2002-08-26 06:56:06 51°13.941 2°53.092 8.2 130 18.3 102100 78
2002-08-26 06:56:11 51°13.935 2°53.061 5.8 139 18.3 102100 78
2002-08-26 06:56:16 51°13.925 2°53.032 6.7 137 18.3 102100 78
2002-08-26 06:56:20 51°13.92 2°53.007 8.3 152 18.3 102100 78
2002-08-26 06:56:26 51°13.91 2°52.971 6.7 150 18.2 102110 77
2002-08-26 06:56:31 51°13.902 2°52.939 8 137 18.2 102110 77
2002-08-26 06:56:36 51°13.893 2°52.907 6.9 137 18.2 102110 78
2002-08-26 06:56:40 51°13.886 2°52.881 6.6 144 18.2 102110 78
2002-08-26 06:56:46 51°13.876 2°52.842 5.8 142 18.2 102110 78
2002-08-26 06:56:51 51°13.868 2°52.81 8.2 142 18.2 102110 78
2002-08-26 06:56:56 51°13.858 2°52.779 7.7 149 18.2 102110 78
2002-08-26 06:57:00 51°13.852 2°52.753 5.3 128 18.2 102110 78
2002-08-26 06:57:06 51°13.839 2°52.718 5.9 130 18.2 102110 78
2002-08-26 06:57:11 51°13.832 2°52.686 4.6 127 18.2 102110 78
2002-08-26 06:57:16 51°13.821 2°52.658 5.9 117 18.1 102110 78
2002-08-26 06:57:20 51°13.814 2°52.633 6.7 152 18.1 102110 78
2002-08-26 06:57:26 51°13.803 2°52.596 7.9 139 18.1 102110 78
2002-08-26 06:57:31 51°13.792 2°52.567 9.5 134 18.1 102110 78
2002-08-26 06:57:36 51°13.784 2°52.535 6.7 127 18.1 102110 78
2002-08-26 06:57:40 51°13.776 2°52.51 6.7 147 18.1 102110 78
2002-08-26 06:57:46 51°13.764 2°52.473 8.2 134 18.1 102110 78
2002-08-26 06:57:51 51°13.757 2°52.44 5.3 130 18.1 102110 78
2002-08-26 06:57:56 51°13.745 2°52.41 6.3 128 18.2 102120 78
2002-08-26 06:58:00 51°13.739 2°52.385 6.2 144 18.2 102120 78
2002-08-26 06:58:06 51°13.726 2°52.349 6.4 137 18.2 102110 78
2002-08-26 06:58:11 51°13.717 2°52.318 6.2 128 18.2 102110 78
2002-08-26 06:58:16 51°13.707 2°52.289 5.6 125 18.2 102110 78
2002-08-26 06:58:20 51°13.7 2°52.264 5.1 132 18.2 102110 78
2002-08-26 06:58:26 51°13.687 2°52.229 7.1 132 18.2 102110 79
2002-08-26 06:58:31 51°13.677 2°52.199 6.9 147 18.2 102110 79
2002-08-26 06:58:36 51°13.665 2°52.168 7.4 135 18.1 102110 78
2002-08-26 06:58:40 51°13.659 2°52.142 5.2 133 18.1 102110 78
2002-08-26 06:58:46 51°13.645 2°52.106 5.3 145 18.1 102110 78
2002-08-26 06:58:51 51°13.638 2°52.073 6.4 136 18.1 102110 78
2002-08-26 06:58:55 51°13.631 2°52.048 8 137 18.2 102110 79
2002-08-26 06:59:00 51°13.621 2°52.018 5.4 126 18.2 102110 79
2002-08-26 06:59:06 51°13.608 2°51.983 7.3 134 18.2 102100 79
2002-08-26 06:59:11 51°13.601 2°51.951 7 126 18.2 102100 79
2002-08-26 06:59:16 51°13.591 2°51.92 6.5 126 18.2 102110 78
2002-08-26 06:59:20 51°13.582 2°51.897 7.8 131 18.2 102110 78
2002-08-26 06:59:26 51°13.572 2°51.858 7.2 129 18.2 102110 78
2002-08-26 06:59:32 51°13.561 2°51.821 5.6 138 18.2 102110 78
2002-08-26 06:59:36 51°13.553 2°51.797 5.1 132 18.1 102110 78
2002-08-26 06:59:40 51°13.546 2°51.771 5.2 126 18.1 102110 78
2002-08-26 06:59:46 51°13.534 2°51.733 5.1 141 18.1 102110 77
2002-08-26 06:59:51 51°13.527 2°51.701 5.6 152 18.1 102110 77
2002-08-26 06:59:55 51°13.518 2°51.677 5.6 143 18.1 102110 78
2002-08-26 07:00:01 51°13.508 2°51.64 5.7 136 18.1 102110 78
2002-08-26 07:00:06 51°13.498 2°51.61 5.8 139 18.1 102110 78
2002-08-26 07:00:11 51°13.489 2°51.579 6.4 143 18.1 102110 78
2002-08-26 07:00:16 51°13.479 2°51.548 7.3 140 18.1 102110 79
2002-08-26 07:00:20 51°13.472 2°51.522 5.5 131 18.1 102110 79
2002-08-26 07:00:26 51°13.46 2°51.485 8.2 140 18.2 102110 78
2002-08-26 07:00:31 51°13.451 2°51.453 7.5 140 18.2 102110 78
2002-08-26 07:00:36 51°13.442 2°51.421 8.9 136 18.1 102100 78
2002-08-26 07:00:42 51°13.431 2°51.385 8 138 18.1 102100 78
2002-08-26 07:00:46 51°13.424 2°51.36 7.2 134 18.1 102100 78
2002-08-26 07:00:51 51°13.414 2°51.329 6.8 128 18.1 102100 78
2002-08-26 07:00:56 51°13.405 2°51.298 5.6 125 18.1 102100 78
2002-08-26 07:01:00 51°13.397 2°51.273 6.3 124 18.1 102100 78
2002-08-26 07:01:06 51°13.386 2°51.236 5.9 137 18.1 102100 78
2002-08-26 07:01:12 51°13.373 2°51.2 5.3 138 18.1 102100 78
2002-08-26 07:01:16 51°13.365 2°51.174 5.1 139 18.1 102110 78
2002-08-26 07:01:19 51°13.359 2°51.156 5 130 18.1 102110 78
2002-08-26 07:01:26 51°13.344 2°51.113 7 131 18.1 102110 78
2002-08-26 07:01:31 51°13.334 2°51.083 5.9 130 18.1 102110 78
2002-08-26 07:01:36 51°13.324 2°51.052 5.9 138 18.2 102110 78
2002-08-26 07:01:41 51°13.314 2°51.022 7.3 125 18.2 102110 78
2002-08-26 07:01:46 51°13.303 2°50.993 5.3 126 18.2 102110 78
2002-08-26 07:01:52 51°13.291 2°50.955 6.1 135 18.2 102110 78
2002-08-26 07:01:56 51°13.281 2°50.933 5 124 18.2 102110 78
2002-08-26 07:02:00 51°13.272 2°50.909 6.4 119 18.2 102110 78
2002-08-26 07:02:04 51°13.264 2°50.884 4.4 119 18.2 102110 78
2002-08-26 07:02:11 51°13.248 2°50.843 5.6 125 18.2 102110 78
2002-08-26 07:02:16 51°13.236 2°50.814 5.1 131 18.2 102110 78
2002-08-26 07:02:21 51°13.226 2°50.782 5.6 111 18.2 102110 78
2002-08-26 07:02:26 51°13.215 2°50.754 4.7 111 18.2 102110 77
2002-08-26 07:02:31 51°13.205 2°50.724 5.3 122 18.2 102110 77
2002-08-26 07:02:36 51°13.194 2°50.694 4.8 118 18.1 102110 77
2002-08-26 07:02:40 51°13.186 2°50.67 4.4 128 18.1 102110 77
2002-08-26 07:02:46 51°13.171 2°50.636 6.5 131 18.1 102110 77
2002-08-26 07:02:51 51°13.162 2°50.604 3.6 132 18.1 102110 77
2002-08-26 07:02:56 51°13.15 2°50.576 4.6 141 18.1 102110 77
2002-08-26 07:03:00 51°13.142 2°50.552 6.2 128 18.1 102110 77
2002-08-26 07:03:05 51°13.131 2°50.522 6.4 134 18.1 102110 77
2002-08-26 07:03:11 51°13.118 2°50.487 5.9 133 18.1 102110 77
2002-08-26 07:03:16 51°13.107 2°50.457 5 130 18.1 102110 77
2002-08-26 07:03:20 51°13.098 2°50.434 6.5 134 18.1 102110 77
2002-08-26 07:03:26 51°13.084 2°50.399 6.6 144 18.2 102110 78
2002-08-26 07:03:32 51°13.071 2°50.363 6.8 132 18.2 102110 78
2002-08-26 07:03:36 51°13.062 2°50.34 6 132 18.2 102110 78
2002-08-26 07:03:40 51°13.052 2°50.316 6.4 134 18.2 102110 78
2002-08-26 07:03:46 51°13.039 2°50.28 6.2 126 18.2 102110 78
2002-08-26 07:03:51 51°13.028 2°50.249 7 135 18.2 102110 78
2002-08-26 07:03:56 51°13.017 2°50.22 5.5 132 18.2 102110 78
2002-08-26 07:04:00 51°13.008 2°50.196 6.9 136 18.2 102110 78
2002-08-26 07:04:06 51°12.996 2°50.16 5.7 132 18.3 102110 78
2002-08-26 07:04:11 51°12.983 2°50.133 10.2 137 18.3 102110 78
2002-08-26 07:04:16 51°12.974 2°50.1 9.4 139 18.2 102110 78
2002-08-26 07:04:20 51°12.964 2°50.078 8.4 131 18.2 102110 78
2002-08-26 07:04:26 51°12.952 2°50.04 8.6 150 18.2 102110 78
2002-08-26 07:04:31 51°12.94 2°50.01 7.8 130 18.2 102110 78
2002-08-26 07:04:36 51°12.93 2°49.979 6.7 127 18.3 102110 78
2002-08-26 07:04:40 51°12.92 2°49.956 7.7 127 18.3 102110 78
2002-08-26 07:04:46 51°12.907 2°49.92 6.4 122 18.3 102100 78
2002-08-26 07:04:51 51°12.897 2°49.888 5.2 128 18.3 102100 78
2002-08-26 07:04:56 51°12.885 2°49.859 6.3 127 18.3 102110 78
2002-08-26 07:05:00 51°12.878 2°49.833 5 129 18.3 102110 78
2002-08-26 07:05:06 51°12.864 2°49.797 7 121 18.2 102110 77
2002-08-26 07:05:11 51°12.853 2°49.766 5.7 121 18.2 102110 77
2002-08-26 07:05:16 51°12.842 2°49.736 5.9 122 18.2 102110 77
2002-08-26 07:05:20 51°12.833 2°49.712 5.7 121 18.2 102110 77
2002-08-26 07:05:26 51°12.82 2°49.674 5.5 117 18.2 102100 78
2002-08-26 07:05:31 51°12.809 2°49.644 5.8 132 18.2 102100 78
2002-08-26 07:05:36 51°12.798 2°49.612 4.4 133 18.2 102110 78
2002-08-26 07:05:40 51°12.789 2°49.588 5.2 143 18.2 102110 78
2002-08-26 07:05:44 51°12.78 2°49.564 4.8 145 18.2 102110 77
2002-08-26 07:05:51 51°12.765 2°49.521 5.3 126 18.2 102110 77
2002-08-26 07:05:56 51°12.753 2°49.493 4.5 139 18.2 102110 78
2002-08-26 07:05:59 51°12.746 2°49.474 6.3 128 18.2 102110 78
2002-08-26 07:06:04 51°12.735 2°49.444 7.9 130 18.3 102110 78
2002-08-26 07:06:11 51°12.72 2°49.401 6.2 133 18.3 102110 78
2002-08-26 07:06:16 51°12.71 2°49.368 7.2 135 18.3 102110 78
2002-08-26 07:06:20 51°12.701 2°49.344 5.3 129 18.3 102110 78
2002-08-26 07:06:26 51°12.688 2°49.307 6.6 127 18.3 102120 77
2002-08-26 07:06:31 51°12.677 2°49.278 5 129 18.3 102120 77
2002-08-26 07:06:36 51°12.666 2°49.247 5.8 137 18.2 102110 77
2002-08-26 07:06:40 51°12.657 2°49.222 4.9 121 18.2 102110 77
2002-08-26 07:06:46 51°12.645 2°49.187 4.5 118 18.2 102110 76
2002-08-26 07:06:51 51°12.634 2°49.155 4.2 122 18.2 102110 76
2002-08-26 07:06:56 51°12.623 2°49.126 4.1 122 18.2 102110 77
2002-08-26 07:07:00 51°12.615 2°49.102 3.8 130 18.2 102110 77
2002-08-26 07:07:04 51°12.605 2°49.079 4.7 129 18.2 102110 77
2002-08-26 07:07:11 51°12.59 2°49.036 5.8 142 18.2 102110 77
2002-08-26 07:07:16 51°12.579 2°49.005 5.6 134 18.2 102110 77
2002-08-26 07:07:19 51°12.572 2°48.988 5.8 128 18.2 102110 77
2002-08-26 07:07:24 51°12.562 2°48.957 4.9 107 18.2 102110 77
2002-08-26 07:07:31 51°12.546 2°48.916 6 138 18.2 102110 77
2002-08-26 07:07:36 51°12.537 2°48.884 7.4 142 18.2 102120 78
2002-08-26 07:07:40 51°12.527 2°48.861 7.9 128 18.2 102120 78
2002-08-26 07:07:46 51°12.515 2°48.825 8 124 18.2 102110 78
2002-08-26 07:07:51 51°12.502 2°48.797 6.6 127 18.2 102110 78
2002-08-26 07:07:56 51°12.493 2°48.765 6 125 18.2 102110 78
2002-08-26 07:08:00 51°12.483 2°48.742 7.1 134 18.2 102110 78
2002-08-26 07:08:07 51°12.467 2°48.7 5.2 130 18.3 102120 78
2002-08-26 07:08:11 51°12.459 2°48.675 5.4 130 18.3 102120 78
2002-08-26 07:08:16 51°12.448 2°48.647 4.3 130 18.2 102110 77
2002-08-26 07:08:20 51°12.439 2°48.621 5.4 140 18.2 102110 77
2002-08-26 07:08:26 51°12.426 2°48.584 4.9 134 18.2 102110 77
2002-08-26 07:08:31 51°12.415 2°48.552 6.1 134 18.2 102110 77
2002-08-26 07:08:36 51°12.405 2°48.523 5.6 125 18.2 102110 77
2002-08-26 07:08:41 51°12.393 2°48.494 6.2 132 18.2 102110 77
2002-08-26 07:08:46 51°12.384 2°48.464 6 124 18.2 102110 77
2002-08-26 07:08:51 51°12.373 2°48.433 4.5 123 18.2 102110 77
2002-08-26 07:08:56 51°12.362 2°48.403 5.8 120 18.2 102120 77
2002-08-26 07:09:00 51°12.354 2°48.379 4.7 123 18.2 102120 77
2002-08-26 07:09:04 51°12.345 2°48.356 4.6 122 18.2 102120 77
2002-08-26 07:09:11 51°12.33 2°48.315 5.1 131 18.2 102120 77
2002-08-26 07:09:16 51°12.32 2°48.284 4.4 135 18.2 102110 77
2002-08-26 07:09:20 51°12.31 2°48.263 4.3 118 18.2 102110 77
2002-08-26 07:09:26 51°12.298 2°48.227 4.8 128 18.2 102120 77
2002-08-26 07:09:31 51°12.287 2°48.198 4.7 121 18.2 102120 77
2002-08-26 07:09:36 51°12.277 2°48.169 4.6 134 18.2 102120 77
2002-08-26 07:09:40 51°12.269 2°48.146 5.4 142 18.2 102120 77
2002-08-26 07:09:46 51°12.257 2°48.111 5 146 18.2 102120 77
2002-08-26 07:09:51 51°12.246 2°48.082 6.2 145 18.2 102120 77
2002-08-26 07:09:56 51°12.236 2°48.054 4.2 160 18.2 102120 77
2002-08-26 07:10:00 51°12.227 2°48.031 5.5 145 18.2 102120 77
2002-08-26 07:10:05 51°12.217 2°48.001 4.4 129 18.2 102120 77
2002-08-26 07:10:11 51°12.205 2°47.966 3.8 133 18.2 102120 77
2002-08-26 07:10:16 51°12.194 2°47.937 5.3 138 18.2 102110 77
2002-08-26 07:10:20 51°12.186 2°47.913 5.7 129 18.2 102110 77
2002-08-26 07:10:24 51°12.179 2°47.89 5 121 18.2 102120 77
2002-08-26 07:10:31 51°12.164 2°47.85 7.1 133 18.2 102120 77
2002-08-26 07:10:36 51°12.155 2°47.82 5.6 139 18.3 102120 77
2002-08-26 07:10:39 51°12.148 2°47.804 6.5 127 18.3 102120 77
2002-08-26 07:10:44 51°12.138 2°47.775 5.7 121 18.3 102110 77
2002-08-26 07:10:51 51°12.124 2°47.737 5.6 134 18.3 102110 77
2002-08-26 07:10:56 51°12.113 2°47.708 5 137 18.2 102110 77
2002-08-26 07:11:01 51°12.103 2°47.679 4.9 133 18.2 102110 77
2002-08-26 07:11:06 51°12.093 2°47.653 4.8 128 18.2 102110 77
2002-08-26 07:11:11 51°12.082 2°47.625 6.5 128 18.2 102110 77
2002-08-26 07:11:16 51°12.072 2°47.597 5.7 134 18.2 102110 76
2002-08-26 07:11:20 51°12.063 2°47.574 5.8 131 18.2 102110 76
2002-08-26 07:11:26 51°12.051 2°47.54 4.9 145 18.2 102110 77
2002-08-26 07:11:31 51°12.04 2°47.513 6.5 139 18.2 102110 77
2002-08-26 07:11:36 51°12.03 2°47.484 6.2 129 18.2 102120 76
2002-08-26 07:11:40 51°12.022 2°47.462 5.2 126 18.2 102120 76
2002-08-26 07:11:46 51°12.009 2°47.429 5.2 137 18.2 102110 77
2002-08-26 07:11:51 51°12 2°47.4 5.7 130 18.2 102110 77
2002-08-26 07:11:56 51°11.989 2°47.371 6.3 137 18.2 102110 77
2002-08-26 07:12:00 51°11.981 2°47.348 4.5 140 18.2 102110 77
2002-08-26 07:12:03 51°11.975 2°47.331 5.4 136 18.2 102110 76
2002-08-26 07:12:11 51°11.959 2°47.285 5.2 120 18.2 102110 76
2002-08-26 07:12:16 51°11.948 2°47.257 5 132 18.2 102120 76
2002-08-26 07:12:20 51°11.941 2°47.233 6.5 123 18.2 102120 76
2002-08-26 07:12:26 51°11.928 2°47.198 6.5 123 18.2 102110 77
2002-08-26 07:12:31 51°11.919 2°47.169 5.2 110 18.2 102110 77
2002-08-26 07:12:36 51°11.909 2°47.14 6.3 125 18.2 102110 76
2002-08-26 07:12:40 51°11.901 2°47.117 5.8 118 18.2 102110 76
2002-08-26 07:12:47 51°11.887 2°47.077 6.8 119 18.2 102110 76
2002-08-26 07:12:51 51°11.878 2°47.055 6.5 117 18.2 102110 76
2002-08-26 07:12:56 51°11.869 2°47.025 5.8 108 18.2 102110 76
2002-08-26 07:13:00 51°11.861 2°47.002 5.3 116 18.2 102110 76
2002-08-26 07:13:04 51°11.853 2°46.98 6.2 114 18.2 102120 76
2002-08-26 07:13:11 51°11.838 2°46.941 5.2 110 18.2 102120 76
2002-08-26 07:13:16 51°11.828 2°46.913 4.4 109 18.2 102120 76
2002-08-26 07:13:19 51°11.821 2°46.896 5.1 112 18.2 102120 76
2002-08-26 07:13:26 51°11.807 2°46.857 5.4 121 18.2 102110 76
2002-08-26 07:13:31 51°11.796 2°46.83 6.2 124 18.2 102110 76
2002-08-26 07:13:36 51°11.787 2°46.8 5.7 119 18.2 102120 76
2002-08-26 07:13:41 51°11.776 2°46.772 4.1 122 18.2 102120 76
2002-08-26 07:13:46 51°11.766 2°46.743 4.7 135 18.2 102110 76
2002-08-26 07:13:51 51°11.757 2°46.715 5.4 115 18.2 102110 76
2002-08-26 07:13:56 51°11.746 2°46.687 4.6 126 18.2 102120 76
2002-08-26 07:14:00 51°11.738 2°46.664 3.7 125 18.2 102120 76
2002-08-26 07:14:04 51°11.729 2°46.642 5 144 18.2 102120 77
2002-08-26 07:14:11 51°11.716 2°46.601 6.6 135 18.2 102120 77
2002-08-26 07:14:16 51°11.705 2°46.573 7.2 140 18.3 102110 77
2002-08-26 07:14:19 51°11.699 2°46.555 7.8 120 18.3 102110 77
2002-08-26 07:14:24 51°11.688 2°46.527 8.3 118 18.3 102120 78
2002-08-26 07:14:31 51°11.674 2°46.486 7.4 138 18.3 102120 78
2002-08-26 07:14:36 51°11.665 2°46.457 6.1 134 18.4 102120 78
2002-08-26 07:14:40 51°11.655 2°46.437 7.5 129 18.4 102120 78
2002-08-26 07:14:46 51°11.644 2°46.401 5.7 146 18.4 102110 77
2002-08-26 07:14:51 51°11.632 2°46.373 7.3 130 18.4 102110 77
2002-08-26 07:14:56 51°11.622 2°46.344 5.9 128 18.4 102120 77
2002-08-26 07:15:01 51°11.611 2°46.317 7 125 18.4 102120 77
2002-08-26 07:15:03 51°11.607 2°46.306 6.4 130 18.4 102120 77
2002-08-26 07:15:11 51°11.59 2°46.26 5.8 131 18.4 102120 77
2002-08-26 07:15:16 51°11.58 2°46.232 7 123 18.4 102120 77
2002-08-26 07:15:20 51°11.571 2°46.211 7.9 130 18.4 102120 77
2002-08-26 07:15:26 51°11.559 2°46.176 6.5 123 18.4 102110 77
2002-08-26 07:15:31 51°11.547 2°46.149 6.7 132 18.4 102110 77
2002-08-26 07:15:36 51°11.537 2°46.121 5.7 134 18.3 102110 77
2002-08-26 07:15:40 51°11.527 2°46.1 7.2 127 18.3 102110 77
2002-08-26 07:15:46 51°11.515 2°46.065 6.1 134 18.3 102110 77
2002-08-26 07:15:51 51°11.502 2°46.04 5.5 129 18.3 102110 77
2002-08-26 07:15:56 51°11.492 2°46.011 6.3 127 18.4 102120 77
2002-08-26 07:16:00 51°11.482 2°45.991 8.2 138 18.4 102120 77
2002-08-26 07:16:04 51°11.474 2°45.967 5.4 130 18.3 102120 76
2002-08-26 07:16:11 51°11.458 2°45.93 3.3 124 18.3 102120 76
2002-08-26 07:16:16 51°11.447 2°45.902 6.5 120 18.3 102110 76
2002-08-26 07:16:21 51°11.435 2°45.877 7.7 127 18.3 102110 76
2002-08-26 07:16:26 51°11.425 2°45.847 7.6 126 18.3 102120 76
2002-08-26 07:16:31 51°11.412 2°45.821 8.2 126 18.3 102120 76
2002-08-26 07:16:36 51°11.403 2°45.792 5.4 117 18.2 102120 75
2002-08-26 07:16:39 51°11.395 2°45.777 6.1 128 18.2 102120 75
2002-08-26 07:16:46 51°11.381 2°45.738 5 124 18.2 102120 76
2002-08-26 07:16:51 51°11.368 2°45.712 6.5 121 18.2 102120 76
2002-08-26 07:16:56 51°11.357 2°45.683 5.9 128 18.2 102120 75
2002-08-26 07:17:00 51°11.348 2°45.66 4.7 123 18.2 102120 75
2002-08-26 07:17:03 51°11.342 2°45.644 3.9 113 18.2 102120 76
2002-08-26 07:17:11 51°11.324 2°45.6 5.7 115 18.2 102120 76
2002-08-26 07:17:16 51°11.311 2°45.574 5 118 18.2 102120 76
2002-08-26 07:17:20 51°11.302 2°45.553 4.8 108 18.2 102120 76
2002-08-26 07:17:26 51°11.288 2°45.521 4.1 117 18.3 102120 76
2002-08-26 07:17:31 51°11.277 2°45.492 4.8 110 18.3 102120 76
2002-08-26 07:17:36 51°11.265 2°45.467 4.4 110 18.2 102120 76
2002-08-26 07:17:39 51°11.258 2°45.451 4.2 130 18.2 102120 76
2002-08-26 07:17:43 51°11.25 2°45.429 4.2 135 18.2 102120 76
2002-08-26 07:17:51 51°11.231 2°45.386 7 119 18.2 102120 76
2002-08-26 07:17:56 51°11.22 2°45.36 5.8 113 18.2 102120 76
2002-08-26 07:18:01 51°11.208 2°45.333 5.2 118 18.2 102120 76
2002-08-26 07:18:07 51°11.196 2°45.3 5 127 18.2 102120 76
2002-08-26 07:18:11 51°11.186 2°45.278 6.2 115 18.2 102120 76
2002-08-26 07:18:16 51°11.176 2°45.252 5.4 109 18.3 102130 76
2002-08-26 07:18:20 51°11.166 2°45.232 5.7 116 18.3 102130 76
2002-08-26 07:18:24 51°11.158 2°45.209 5.6 112 18.3 102120 77
2002-08-26 07:18:31 51°11.142 2°45.171 5 125 18.3 102120 77
2002-08-26 07:18:36 51°11.131 2°45.145 6 115 18.3 102120 76
2002-08-26 07:18:42 51°11.118 2°45.115 6.5 121 18.3 102120 76
2002-08-26 07:18:46 51°11.11 2°45.092 6.3 120 18.3 102120 76
2002-08-26 07:18:51 51°11.098 2°45.066 7.3 121 18.3 102120 76
2002-08-26 07:18:56 51°11.088 2°45.036 6.7 120 18.3 102120 76
2002-08-26 07:19:01 51°11.076 2°45.012 4.7 105 18.3 102120 76
2002-08-26 07:19:06 51°11.065 2°44.986 5.9 105 18.2 102130 76
2002-08-26 07:19:11 51°11.054 2°44.96 4.6 123 18.2 102130 76
2002-08-26 07:19:16 51°11.042 2°44.933 5.6 125 18.2 102130 75
2002-08-26 07:19:20 51°11.034 2°44.911 4.7 110 18.2 102130 75
2002-08-26 07:19:26 51°11.02 2°44.881 5.2 106 18.2 102120 75
2002-08-26 07:19:31 51°11.009 2°44.856 4.3 122 18.2 102120 75
2002-08-26 07:19:36 51°10.996 2°44.829 3.5 127 18.2 102120 75
2002-08-26 07:19:39 51°10.991 2°44.812 3.3 96 18.2 102120 75
2002-08-26 07:19:47 51°10.972 2°44.771 4.9 123 18.2 102130 75
2002-08-26 07:19:51 51°10.967 2°44.748 4.3 109 18.2 102130 75
2002-08-26 07:19:56 51°10.954 2°44.724 5 109 18.2 102120 76
2002-08-26 07:20:01 51°10.944 2°44.697 5.3 104 18.2 102120 76
2002-08-26 07:20:06 51°10.933 2°44.671 5.2 105 18.2 102120 75
2002-08-26 07:20:11 51°10.921 2°44.645 5.5 113 18.2 102120 75
2002-08-26 07:20:16 51°10.911 2°44.619 3.8 111 18.2 102120 76
2002-08-26 07:20:19 51°10.903 2°44.605 5 102 18.2 102120 76
2002-08-26 07:20:26 51°10.888 2°44.568 4.7 102 18.2 102120 75
2002-08-26 07:20:31 51°10.877 2°44.543 4.5 105 18.2 102120 75
2002-08-26 07:20:36 51°10.865 2°44.517 3.8 94 18.2 102130 75
2002-08-26 07:20:41 51°10.854 2°44.49 4.4 100 18.2 102130 75
2002-08-26 07:20:46 51°10.843 2°44.464 4.3 100 18.2 102120 74
2002-08-26 07:20:51 51°10.831 2°44.439 5.2 122 18.2 102120 74
2002-08-26 07:20:56 51°10.821 2°44.412 3.7 102 18.2 102130 74
2002-08-26 07:21:00 51°10.812 2°44.392 5.6 102 18.2 102130 74
2002-08-26 07:21:04 51°10.805 2°44.37 4 97 18.2 102130 75
2002-08-26 07:21:11 51°10.788 2°44.335 3.9 99 18.2 102130 75
2002-08-26 07:21:16 51°10.778 2°44.308 3.7 109 18.2 102130 75
2002-08-26 07:21:20 51°10.768 2°44.289 5.3 105 18.2 102130 75
2002-08-26 07:21:27 51°10.753 2°44.252 4.3 106 18.2 102120 75
2002-08-26 07:21:31 51°10.743 2°44.232 4.8 99 18.2 102120 75
2002-08-26 07:21:36 51°10.733 2°44.207 4 83 18.2 102130 75
2002-08-26 07:21:41 51°10.72 2°44.183 4.9 128 18.2 102130 75
2002-08-26 07:21:44 51°10.715 2°44.166 4.4 106 18.2 102130 75
2002-08-26 07:21:51 51°10.698 2°44.133 5.8 114 18.2 102130 75
2002-08-26 07:21:56 51°10.689 2°44.105 4.8 110 18.2 102130 75
2002-08-26 07:22:01 51°10.678 2°44.081 4.3 115 18.2 102130 75
2002-08-26 07:22:06 51°10.665 2°44.056 4.2 114 18.2 102130 76
2002-08-26 07:22:11 51°10.657 2°44.028 5.4 120 18.2 102130 76
2002-08-26 07:22:16 51°10.646 2°44.004 5.4 115 18.3 102130 75
2002-08-26 07:22:21 51°10.635 2°43.978 6 126 18.3 102130 75
2002-08-26 07:22:26 51°10.626 2°43.951 6.1 123 18.3 102130 75
2002-08-26 07:22:31 51°10.614 2°43.926 6.8 128 18.3 102130 75
2002-08-26 07:22:36 51°10.605 2°43.898 5.8 125 18.3 102130 75
2002-08-26 07:22:40 51°10.596 2°43.877 5.9 114 18.3 102130 75
2002-08-26 07:22:46 51°10.585 2°43.846 3.8 115 18.3 102130 75
2002-08-26 07:22:51 51°10.575 2°43.819 6.4 127 18.3 102130 75
2002-08-26 07:22:56 51°10.565 2°43.792 5.6 126 18.3 102130 75
2002-08-26 07:23:01 51°10.554 2°43.766 6.7 120 18.3 102130 75
2002-08-26 07:23:06 51°10.545 2°43.739 5.3 109 18.3 102120 75
2002-08-26 07:23:11 51°10.535 2°43.713 6.4 132 18.3 102120 75
2002-08-26 07:23:16 51°10.525 2°43.687 4.9 124 18.3 102130 75
2002-08-26 07:23:20 51°10.517 2°43.665 5.8 119 18.3 102130 75
2002-08-26 07:23:26 51°10.504 2°43.633 5.6 124 18.3 102130 75
2002-08-26 07:23:31 51°10.494 2°43.607 5.4 123 18.3 102130 75
2002-08-26 07:23:36 51°10.484 2°43.581 5.2 126 18.3 102130 76
2002-08-26 07:23:40 51°10.476 2°43.56 5.4 132 18.3 102130 76
2002-08-26 07:23:47 51°10.462 2°43.524 5.3 138 18.3 102120 76
2002-08-26 07:23:51 51°10.454 2°43.503 4.5 147 18.3 102120 76
2002-08-26 07:23:56 51°10.443 2°43.477 7.1 132 18.3 102120 76
2002-08-26 07:24:00 51°10.436 2°43.454 6.3 119 18.3 102120 76
2002-08-26 07:24:04 51°10.428 2°43.434 7.4 131 18.4 102120 76
2002-08-26 07:24:11 51°10.415 2°43.396 8.9 128 18.4 102120 76
2002-08-26 07:24:16 51°10.408 2°43.367 8.5 129 18.4 102120 76
2002-08-26 07:24:20 51°10.399 2°43.346 7.3 131 18.4 102120 76
2002-08-26 07:24:26 51°10.39 2°43.312 5.6 133 18.4 102110 76
2002-08-26 07:24:31 51°10.382 2°43.283 7.4 138 18.4 102110 76
2002-08-26 07:24:36 51°10.374 2°43.256 5.5 129 18.4 102120 75
2002-08-26 07:24:41 51°10.365 2°43.229 7.5 124 18.4 102120 75
2002-08-26 07:24:46 51°10.357 2°43.2 6 102 18.3 102120 75
2002-08-26 07:24:51 51°10.347 2°43.173 8.4 129 18.3 102120 75
2002-08-26 07:24:56 51°10.341 2°43.145 6.4 122 18.3 102120 75
2002-08-26 07:25:00 51°10.332 2°43.123 8.8 125 18.3 102120 75
2002-08-26 07:25:06 51°10.324 2°43.088 6.3 127 18.3 102120 75
2002-08-26 07:25:11 51°10.315 2°43.06 6.4 133 18.3 102120 75
2002-08-26 07:25:16 51°10.309 2°43.031 4.8 133 18.3 102120 75
2002-08-26 07:25:21 51°10.301 2°43.003 7.3 138 18.3 102120 75
2002-08-26 07:25:26 51°10.293 2°42.974 6.8 147 18.3 102130 75
2002-08-26 07:25:31 51°10.286 2°42.945 5.5 134 18.3 102130 75
2002-08-26 07:25:36 51°10.278 2°42.918 5.9 133 18.3 102120 76
2002-08-26 07:25:40 51°10.273 2°42.894 6.5 131 18.3 102120 76
2002-08-26 07:25:46 51°10.263 2°42.86 6 127 18.3 102120 75
2002-08-26 07:25:51 51°10.255 2°42.832 7.7 131 18.3 102120 75
2002-08-26 07:25:56 51°10.248 2°42.803 6.9 125 18.3 102120 75
2002-08-26 07:26:00 51°10.241 2°42.782 7.7 136 18.3 102120 75
2002-08-26 07:26:04 51°10.235 2°42.758 8.4 139 18.3 102120 75
2002-08-26 07:26:11 51°10.224 2°42.719 8.9 137 18.3 102120 75
2002-08-26 07:26:16 51°10.219 2°42.688 7.8 133 18.3 102120 75
2002-08-26 07:26:19 51°10.215 2°42.671 7.2 147 18.3 102120 75
2002-08-26 07:26:23 51°10.209 2°42.649 6.6 134 18.3 102130 75
2002-08-26 07:26:31 51°10.199 2°42.602 7.5 139 18.3 102130 75
2002-08-26 07:26:36 51°10.191 2°42.573 9.4 137 18.3 102120 75
2002-08-26 07:26:42 51°10.183 2°42.539 6.8 134 18.3 102120 75
2002-08-26 07:26:46 51°10.177 2°42.516 8.1 133 18.3 102120 75
2002-08-26 07:26:52 51°10.169 2°42.482 6.2 136 18.3 102120 75
2002-08-26 07:26:56 51°10.163 2°42.459 6.8 135 18.3 102110 75
2002-08-26 07:27:00 51°10.157 2°42.436 6 133 18.3 102110 75
2002-08-26 07:27:04 51°10.151 2°42.413 6 124 18.3 102120 75
2002-08-26 07:27:11 51°10.141 2°42.373 6.4 128 18.3 102120 75
2002-08-26 07:27:16 51°10.135 2°42.344 6.7 128 18.3 102120 75
2002-08-26 07:27:22 51°10.125 2°42.31 7.3 140 18.3 102120 75
2002-08-26 07:27:26 51°10.121 2°42.287 5.9 146 18.3 102120 75
2002-08-26 07:27:31 51°10.113 2°42.258 7.1 123 18.3 102120 75
2002-08-26 07:27:36 51°10.107 2°42.23 6.5 134 18.4 102130 77
2002-08-26 07:27:40 51°10.102 2°42.207 7.3 126 18.4 102130 77
2002-08-26 07:27:46 51°10.095 2°42.171 6.7 130 18.4 102130 76
2002-08-26 07:27:51 51°10.09 2°42.142 7.3 127 18.4 102130 76
2002-08-26 07:27:56 51°10.084 2°42.113 6.4 134 18.4 102120 76
2002-08-26 07:28:01 51°10.078 2°42.083 6.6 132 18.4 102120 76
2002-08-26 07:28:06 51°10.073 2°42.054 6.8 126 18.4 102130 76
2002-08-26 07:28:11 51°10.067 2°42.024 6.3 122 18.4 102130 76
2002-08-26 07:28:16 51°10.061 2°41.996 5.7 128 18.3 102120 75
2002-08-26 07:28:20 51°10.057 2°41.972 5 131 18.3 102120 75
2002-08-26 07:28:27 51°10.049 2°41.932 7.2 125 18.4 102130 75
2002-08-26 07:28:31 51°10.042 2°41.91 7.7 120 18.4 102130 75
2002-08-26 07:28:36 51°10.037 2°41.88 6.2 131 18.3 102120 75
2002-08-26 07:28:40 51°10.031 2°41.857 6.3 113 18.3 102120 75
2002-08-26 07:28:46 51°10.023 2°41.823 5.9 123 18.3 102120 76
2002-08-26 07:28:51 51°10.017 2°41.794 7.3 134 18.3 102120 76
2002-08-26 07:28:56 51°10.011 2°41.765 6.2 125 18.3 102130 75
2002-08-26 07:28:59 51°10.008 2°41.747 6.7 131 18.3 102130 75
2002-08-26 07:29:06 51°10.002 2°41.706 8.1 135 18.3 102130 75
2002-08-26 07:29:11 51°9.995 2°41.677 9.8 149 18.3 102130 75
2002-08-26 07:29:16 51°9.993 2°41.646 8.2 148 18.3 102130 75
2002-08-26 07:29:20 51°9.99 2°41.622 8.8 140 18.3 102130 75
2002-08-26 07:29:26 51°9.986 2°41.587 9.9 152 18.3 102130 76
2002-08-26 07:29:32 51°9.981 2°41.551 7.7 144 18.3 102130 76
2002-08-26 07:29:36 51°9.978 2°41.527 7.8 147 18.4 102130 76
2002-08-26 07:29:40 51°9.975 2°41.503 8.9 144 18.4 102130 76
2002-08-26 07:29:44 51°9.972 2°41.479 6.3 164 18.4 102120 76
2002-08-26 07:29:51 51°9.967 2°41.437 6.8 141 18.4 102120 76
2002-08-26 07:29:56 51°9.962 2°41.407 6.9 153 18.4 102120 76
2002-08-26 07:30:00 51°9.961 2°41.382 7.7 139 18.4 102120 76
2002-08-26 07:30:06 51°9.956 2°41.346 7 143 18.4 102120 76
2002-08-26 07:30:12 51°9.953 2°41.31 6.4 147 18.4 102120 76
2002-08-26 07:30:16 51°9.949 2°41.286 6.9 144 18.4 102120 76
2002-08-26 07:30:20 51°9.947 2°41.262 7 144 18.4 102120 76
2002-08-26 07:30:26 51°9.942 2°41.225 7.3 140 18.4 102120 76
2002-08-26 07:30:31 51°9.941 2°41.195 5.3 141 18.4 102120 76
2002-08-26 07:30:36 51°9.935 2°41.165 7.1 140 18.4 102120 77
2002-08-26 07:30:40 51°9.933 2°41.14 8.3 141 18.4 102120 77
2002-08-26 07:30:46 51°9.929 2°41.103 8.9 148 18.4 102120 77
2002-08-26 07:30:51 51°9.924 2°41.074 10.1 149 18.4 102120 77
2002-08-26 07:30:56 51°9.921 2°41.043 7.4 143 18.4 102110 77
2002-08-26 07:31:00 51°9.917 2°41.018 8.9 143 18.4 102110 77
2002-08-26 07:31:04 51°9.914 2°40.994 8 153 18.4 102120 77
2002-08-26 07:31:11 51°9.909 2°40.952 8.6 151 18.4 102120 77
2002-08-26 07:31:16 51°9.905 2°40.921 7.2 154 18.4 102130 77
2002-08-26 07:31:20 51°9.902 2°40.896 7.7 158 18.4 102130 77
2002-08-26 07:31:25 51°9.899 2°40.865 7.1 163 18.4 102120 77
2002-08-26 07:31:31 51°9.896 2°40.827 7.8 145 18.4 102120 77
2002-08-26 07:31:36 51°9.892 2°40.796 8.4 143 18.4 102120 77
2002-08-26 07:31:39 51°9.89 2°40.778 9.2 143 18.4 102120 77
2002-08-26 07:31:43 51°9.886 2°40.753 8.3 153 18.4 102120 76
2002-08-26 07:31:51 51°9.88 2°40.703 7.4 149 18.4 102120 76
2002-08-26 07:31:56 51°9.876 2°40.672 7.2 132 18.3 102120 76
2002-08-26 07:32:01 51°9.871 2°40.641 7.5 140 18.3 102120 76
2002-08-26 07:32:06 51°9.867 2°40.61 7.8 140 18.3 102120 77
2002-08-26 07:32:11 51°9.863 2°40.579 8.3 141 18.3 102120 77
2002-08-26 07:32:16 51°9.858 2°40.548 7 139 18.4 102120 77
2002-08-26 07:32:20 51°9.855 2°40.522 7.8 143 18.4 102120 77
2002-08-26 07:32:26 51°9.851 2°40.484 9.5 137 18.4 102120 77
2002-08-26 07:32:32 51°9.847 2°40.447 9.5 139 18.4 102120 77
2002-08-26 07:32:36 51°9.845 2°40.421 8.8 139 18.3 102130 76
2002-08-26 07:32:40 51°9.842 2°40.396 9.3 149 18.3 102130 76
2002-08-26 07:32:44 51°9.839 2°40.371 7.7 144 18.3 102120 76
2002-08-26 07:32:51 51°9.835 2°40.326 9.2 144 18.3 102120 76
2002-08-26 07:32:56 51°9.83 2°40.295 6.1 147 18.3 102120 76
2002-08-26 07:33:00 51°9.828 2°40.269 7.6 152 18.3 102120 76
2002-08-26 07:33:06 51°9.823 2°40.232 7.9 155 18.3 102120 76
2002-08-26 07:33:11 51°9.821 2°40.199 9.2 152 18.3 102120 76
2002-08-26 07:33:16 51°9.817 2°40.168 9 145 18.3 102120 77
2002-08-26 07:33:19 51°9.814 2°40.149 7.5 154 18.3 102120 77
2002-08-26 07:33:24 51°9.81 2°40.117 8 150 18.4 102120 77
2002-08-26 07:33:31 51°9.806 2°40.072 8.5 146 18.4 102120 77
2002-08-26 07:33:36 51°9.801 2°40.04 9.1 145 18.4 102120 77
2002-08-26 07:33:42 51°9.797 2°40.002 9.4 151 18.4 102120 77
2002-08-26 07:33:46 51°9.795 2°39.976 9.4 151 18.4 102120 77
2002-08-26 07:33:51 51°9.79 2°39.945 9.9 146 18.4 102120 77
2002-08-26 07:33:56 51°9.788 2°39.913 8.7 147 18.4 102120 77
2002-08-26 07:34:00 51°9.783 2°39.888 8.4 142 18.4 102120 77
2002-08-26 07:34:06 51°9.781 2°39.849 8.1 150 18.4 102120 77
2002-08-26 07:34:11 51°9.777 2°39.816 8.8 151 18.4 102120 77
2002-08-26 07:34:16 51°9.774 2°39.784 9.1 158 18.4 102120 77
2002-08-26 07:34:20 51°9.771 2°39.759 8.6 148 18.4 102120 77
2002-08-26 07:34:26 51°9.766 2°39.72 8 148 18.4 102120 77
2002-08-26 07:34:31 51°9.762 2°39.688 8.6 146 18.4 102120 77
2002-08-26 07:34:36 51°9.76 2°39.656 8.5 144 18.3 102120 77
2002-08-26 07:34:40 51°9.756 2°39.63 8.3 159 18.3 102120 77
2002-08-26 07:34:47 51°9.753 2°39.585 8.3 155 18.3 102110 76
2002-08-26 07:34:51 51°9.749 2°39.559 11.1 152 18.3 102110 76
2002-08-26 07:34:56 51°9.746 2°39.526 10.2 158 18.3 102120 77
2002-08-26 07:35:01 51°9.743 2°39.494 8.6 152 18.3 102120 77
2002-08-26 07:35:06 51°9.738 2°39.462 8.7 156 18.3 102130 78
2002-08-26 07:35:11 51°9.737 2°39.429 8.6 151 18.3 102130 78
2002-08-26 07:35:16 51°9.731 2°39.398 7.2 156 18.3 102120 77
2002-08-26 07:35:20 51°9.73 2°39.371 7.8 154 18.3 102120 77
2002-08-26 07:35:26 51°9.724 2°39.333 10.6 153 18.3 102110 76
2002-08-26 07:35:32 51°9.72 2°39.294 7.5 149 18.3 102110 76
2002-08-26 07:35:36 51°9.718 2°39.268 9.5 143 18.3 102110 76
2002-08-26 07:35:40 51°9.714 2°39.242 10.1 146 18.3 102110 76
2002-08-26 07:35:44 51°9.712 2°39.216 9.8 149 18.3 102110 76
2002-08-26 07:35:51 51°9.706 2°39.171 9.9 141 18.3 102110 76
2002-08-26 07:35:56 51°9.703 2°39.138 8.8 146 18.3 102120 76
2002-08-26 07:36:02 51°9.699 2°39.099 8 150 18.3 102120 76
2002-08-26 07:36:06 51°9.696 2°39.073 7.9 149 18.2 102120 76
2002-08-26 07:36:11 51°9.693 2°39.04 8.6 149 18.2 102120 76
2002-08-26 07:36:16 51°9.69 2°39.007 8.8 145 18.2 102120 76
2002-08-26 07:36:20 51°9.686 2°38.981 7.8 140 18.2 102120 76
2002-08-26 07:36:26 51°9.682 2°38.942 8.7 149 18.2 102110 76
2002-08-26 07:36:31 51°9.678 2°38.91 7 144 18.2 102110 76
2002-08-26 07:36:36 51°9.675 2°38.877 8.6 134 18.2 102120 76
2002-08-26 07:36:39 51°9.672 2°38.857 6.4 153 18.2 102120 76
2002-08-26 07:36:43 51°9.67 2°38.831 8.8 148 18.2 102110 76
2002-08-26 07:36:51 51°9.664 2°38.779 6.5 142 18.2 102110 76
2002-08-26 07:36:56 51°9.661 2°38.747 9.9 138 18.3 102130 77
2002-08-26 07:37:00 51°9.657 2°38.721 8.5 134 18.3 102130 77
2002-08-26 07:37:06 51°9.654 2°38.682 9.1 145 18.3 102130 77
2002-08-26 07:37:11 51°9.648 2°38.65 7.5 140 18.3 102130 77
2002-08-26 07:37:16 51°9.645 2°38.617 7.9 145 18.3 102120 76
2002-08-26 07:37:20 51°9.642 2°38.591 7 149 18.3 102120 76
2002-08-26 07:37:25 51°9.638 2°38.56 5.8 138 18.3 102120 77
2002-08-26 07:37:31 51°9.635 2°38.52 7.7 142 18.3 102120 77
2002-08-26 07:37:36 51°9.632 2°38.488 7 136 18.3 102120 77
2002-08-26 07:37:42 51°9.628 2°38.449 6.4 136 18.3 102120 77
2002-08-26 07:37:46 51°9.624 2°38.423 7.5 135 18.2 102120 76
2002-08-26 07:37:51 51°9.622 2°38.391 7.4 136 18.2 102120 76
2002-08-26 07:37:56 51°9.617 2°38.359 6.6 141 18.2 102130 76
2002-08-26 07:37:59 51°9.616 2°38.34 5.1 153 18.2 102130 76
2002-08-26 07:38:07 51°9.609 2°38.288 6.4 149 18.2 102120 76
2002-08-26 07:38:11 51°9.609 2°38.262 6.7 148 18.2 102120 76
2002-08-26 07:38:16 51°9.603 2°38.23 7.2 141 18.2 102120 76
2002-08-26 07:38:20 51°9.603 2°38.204 5.7 148 18.2 102120 76
2002-08-26 07:38:27 51°9.597 2°38.159 6.5 159 18.2 102120 76
2002-08-26 07:38:31 51°9.597 2°38.133 6.4 153 18.2 102120 76
2002-08-26 07:38:36 51°9.592 2°38.101 6.9 156 18.2 102120 77
2002-08-26 07:38:40 51°9.592 2°38.075 6.7 153 18.2 102120 77
2002-08-26 07:38:47 51°9.587 2°38.029 8.1 159 18.3 102120 77
2002-08-26 07:38:51 51°9.585 2°38.003 8.3 151 18.3 102120 77
2002-08-26 07:38:56 51°9.582 2°37.971 8.2 145 18.2 102120 77
2002-08-26 07:39:00 51°9.581 2°37.945 8.6 144 18.2 102120 77
2002-08-26 07:39:04 51°9.577 2°37.919 9.9 147 18.2 102120 76
2002-08-26 07:39:11 51°9.574 2°37.873 10.6 149 18.2 102120 76
2002-08-26 07:39:16 51°9.574 2°37.84 11.4 149 18.3 102120 77
2002-08-26 07:39:21 51°9.569 2°37.808 8.9 156 18.3 102120 77
2002-08-26 07:39:26 51°9.568 2°37.776 9.2 145 18.3 102130 77
2002-08-26 07:39:31 51°9.565 2°37.743 9.5 155 18.3 102130 77
2002-08-26 07:39:36 51°9.564 2°37.71 12.7 154 18.4 102130 78
2002-08-26 07:39:40 51°9.561 2°37.685 10.2 147 18.4 102130 78
2002-08-26 07:39:43 51°9.559 2°37.665 11.2 145 18.3 102120 77
2002-08-26 07:39:51 51°9.555 2°37.613 8.5 146 18.3 102120 77
2002-08-26 07:39:56 51°9.553 2°37.58 8.3 147 18.3 102120 77
2002-08-26 07:39:59 51°9.552 2°37.561 8.6 158 18.3 102120 77
2002-08-26 07:40:07 51°9.547 2°37.509 8 156 18.3 102120 77
2002-08-26 07:40:11 51°9.544 2°37.483 9.8 149 18.3 102120 77
2002-08-26 07:40:16 51°9.541 2°37.451 10.1 154 18.3 102120 77
2002-08-26 07:40:21 51°9.538 2°37.419 10.5 145 18.3 102120 77
2002-08-26 07:40:24 51°9.537 2°37.399 10 148 18.3 102110 77
2002-08-26 07:40:31 51°9.532 2°37.353 9.5 148 18.3 102110 77
2002-08-26 07:40:36 51°9.531 2°37.32 8.8 155 18.3 102120 78
2002-08-26 07:40:40 51°9.526 2°37.294 9.5 146 18.3 102120 78
2002-08-26 07:40:46 51°9.525 2°37.254 8 149 18.3 102110 77
2002-08-26 07:40:51 51°9.522 2°37.221 9.8 146 18.3 102110 77
2002-08-26 07:40:56 51°9.52 2°37.188 9.6 145 18.3 102120 77
2002-08-26 07:41:00 51°9.516 2°37.162 8.6 144 18.3 102120 77
2002-08-26 07:41:07 51°9.514 2°37.116 8.2 148 18.3 102120 77
2002-08-26 07:41:11 51°9.51 2°37.09 7.8 152 18.3 102120 77
2002-08-26 07:41:16 51°9.508 2°37.057 8.2 157 18.3 102120 77
2002-08-26 07:41:20 51°9.506 2°37.03 8.6 156 18.3 102120 77
2002-08-26 07:41:25 51°9.503 2°36.998 10.3 149 18.3 102130 77
2002-08-26 07:41:31 51°9.5 2°36.958 9.7 146 18.3 102130 77
2002-08-26 07:41:36 51°9.498 2°36.925 8.2 156 18.3 102120 78
2002-08-26 07:41:41 51°9.495 2°36.892 7.4 153 18.3 102120 78
2002-08-26 07:41:44 51°9.495 2°36.872 8.3 153 18.3 102120 77
2002-08-26 07:41:51 51°9.491 2°36.826 9.9 157 18.3 102120 77
2002-08-26 07:41:56 51°9.492 2°36.792 8.7 160 18.3 102120 77
2002-08-26 07:42:00 51°9.489 2°36.766 10.4 152 18.3 102120 77
2002-08-26 07:42:06 51°9.488 2°36.726 8.9 150 18.3 102120 77
2002-08-26 07:42:11 51°9.486 2°36.693 8.1 151 18.3 102120 77
2002-08-26 07:42:16 51°9.487 2°36.66 9.4 160 18.3 102120 78
2002-08-26 07:42:19 51°9.487 2°36.64 9 158 18.3 102120 78
2002-08-26 07:42:26 51°9.487 2°36.594 10.2 156 18.3 102110 78
2002-08-26 07:42:31 51°9.487 2°36.561 10.6 160 18.3 102110 78
2002-08-26 07:42:36 51°9.49 2°36.528 12.9 161 18.3 102120 78
2002-08-26 07:42:39 51°9.49 2°36.508 13.3 159 18.3 102120 78
2002-08-26 07:42:47 51°9.494 2°36.456 13.3 172 18.3 102120 78
2002-08-26 07:42:51 51°9.494 2°36.429 13.3 164 18.3 102120 78
2002-08-26 07:42:56 51°9.5 2°36.398 11.8 170 18.4 102120 79
2002-08-26 07:43:00 51°9.502 2°36.372 12.7 175 18.4 102120 79
2002-08-26 07:43:07 51°9.512 2°36.33 14.3 175 18.4 102110 79
2002-08-26 07:43:11 51°9.516 2°36.304 12.1 180 18.4 102110 79
2002-08-26 07:43:16 51°9.523 2°36.275 13.5 180 18.3 102110 78
2002-08-26 07:43:21 51°9.532 2°36.246 12.6 183 18.3 102110 78
2002-08-26 07:43:26 51°9.539 2°36.217 10.7 187 18.4 102110 79
2002-08-26 07:43:31 51°9.55 2°36.191 13 188 18.4 102110 79
2002-08-26 07:43:36 51°9.561 2°36.165 14 194 18.3 102090 78
2002-08-26 07:43:40 51°9.571 2°36.146 13.4 197 18.3 102090 78
2002-08-26 07:43:46 51°9.587 2°36.119 13.6 196 18.3 102090 78
2002-08-26 07:43:51 51°9.6 2°36.098 15.8 198 18.3 102090 78
2002-08-26 07:43:56 51°9.614 2°36.077 14.2 197 18.3 102080 78
2002-08-26 07:44:00 51°9.625 2°36.061 14.9 195 18.3 102080 78
2002-08-26 07:44:06 51°9.643 2°36.037 14.4 198 18.3 102080 78
2002-08-26 07:44:11 51°9.658 2°36.019 15.4 198 18.3 102080 78
2002-08-26 07:44:16 51°9.674 2°36.001 15.3 201 18.3 102090 78
2002-08-26 07:44:20 51°9.686 2°35.987 16.5 204 18.3 102090 78
2002-08-26 07:44:26 51°9.706 2°35.969 16.5 205 18.3 102080 79
2002-08-26 07:44:31 51°9.722 2°35.955 15.8 207 18.3 102080 79
2002-08-26 07:44:36 51°9.739 2°35.941 14 214 18.3 102080 78
2002-08-26 07:44:39 51°9.748 2°35.933 14 209 18.3 102080 78
2002-08-26 07:44:43 51°9.762 2°35.925 15.3 214 18.3 102080 78
2002-08-26 07:44:51 51°9.789 2°35.905 15.7 204 18.3 102080 78
2002-08-26 07:44:56 51°9.806 2°35.894 16.9 208 18.3 102080 79
2002-08-26 07:45:01 51°9.822 2°35.881 16 210 18.3 102080 79
2002-08-26 07:45:06 51°9.84 2°35.871 17.4 213 18.3 102100 80
2002-08-26 07:45:11 51°9.856 2°35.858 18 212 18.3 102100 80
2002-08-26 07:45:16 51°9.873 2°35.848 17.5 216 18.3 102080 79
2002-08-26 07:45:22 51°9.894 2°35.833 15.8 213 18.3 102080 79
2002-08-26 07:45:26 51°9.908 2°35.825 16.1 217 18.3 102080 79
2002-08-26 07:45:31 51°9.925 2°35.814 17.3 217 18.3 102080 79
2002-08-26 07:45:36 51°9.942 2°35.805 17.7 223 18.3 102090 79
2002-08-26 07:45:40 51°9.956 2°35.798 17.7 225 18.3 102090 79
2002-08-26 07:45:46 51°9.977 2°35.79 17.8 224 18.3 102090 79
2002-08-26 07:45:51 51°9.995 2°35.786 18.1 227 18.3 102090 79
2002-08-26 07:45:56 51°10.012 2°35.783 17.8 224 18.2 102080 79
2002-08-26 07:46:00 51°10.026 2°35.781 17.1 316 18.2 102080 79
2002-08-26 07:46:04 51°10.04 2°35.781 17.9 222 18.2 102090 79
2002-08-26 07:46:11 51°10.065 2°35.781 18.4 227 18.2 102090 79
2002-08-26 07:46:16 51°10.082 2°35.783 18.1 231 18.2 102100 78
2002-08-26 07:46:19 51°10.092 2°35.787 19.4 234 18.2 102100 78
2002-08-26 07:46:27 51°10.117 2°35.799 17.1 233 18.2 102080 79
2002-08-26 07:46:31 51°10.13 2°35.807 17.9 231 18.2 102080 79
2002-08-26 07:46:36 51°10.145 2°35.817 18.7 235 18.2 102090 79
2002-08-26 07:46:39 51°10.154 2°35.823 17.7 236 18.2 102090 79
2002-08-26 07:46:47 51°10.179 2°35.841 18.4 239 18.2 102110 79
2002-08-26 07:46:51 51°10.19 2°35.852 17.1 236 18.2 102110 79
2002-08-26 07:46:56 51°10.205 2°35.864 18.5 240 18.2 102100 79
2002-08-26 07:47:00 51°10.217 2°35.874 18.4 238 18.2 102100 79
2002-08-26 07:47:06 51°10.235 2°35.889 17.4 239 18.2 102090 78
2002-08-26 07:47:11 51°10.249 2°35.902 16.9 234 18.2 102090 78
2002-08-26 07:47:16 51°10.264 2°35.914 16.7 238 18.2 102110 79
2002-08-26 07:47:19 51°10.273 2°35.922 16.8 232 18.2 102110 79
2002-08-26 07:47:24 51°10.288 2°35.935 17.3 232 18.2 102090 79
2002-08-26 07:47:31 51°10.309 2°35.953 16.1 224 18.2 102090 79
2002-08-26 07:47:36 51°10.325 2°35.965 16.3 229 18.2 102080 79
2002-08-26 07:47:40 51°10.337 2°35.976 16.6 230 18.2 102080 79
2002-08-26 07:47:46 51°10.355 2°35.99 17.7 225 18.2 102100 79
2002-08-26 07:47:51 51°10.371 2°36.003 18 229 18.2 102100 79
2002-08-26 07:47:56 51°10.386 2°36.015 17.3 230 18.2 102110 79
2002-08-26 07:48:02 51°10.405 2°36.03 17.1 224 18.2 102110 79
2002-08-26 07:48:06 51°10.418 2°36.039 17.3 231 18.2 102100 79
2002-08-26 07:48:11 51°10.433 2°36.052 18.2 226 18.2 102100 79
2002-08-26 07:48:16 51°10.449 2°36.063 18.1 226 18.2 102100 79
2002-08-26 07:48:20 51°10.461 2°36.074 16.7 233 18.2 102100 79
2002-08-26 07:48:26 51°10.481 2°36.087 17.1 233 18.2 102100 79
2002-08-26 07:48:31 51°10.496 2°36.1 16.8 235 18.2 102100 79
2002-08-26 07:48:36 51°10.512 2°36.11 16.1 234 18.2 102100 79
2002-08-26 07:48:40 51°10.524 2°36.121 17.6 236 18.2 102100 79
2002-08-26 07:48:46 51°10.543 2°36.134 18 232 18.3 102100 80
2002-08-26 07:48:52 51°10.562 2°36.148 16.9 233 18.3 102100 80
2002-08-26 07:48:56 51°10.575 2°36.156 18.2 236 18.3 102110 80
2002-08-26 07:49:00 51°10.587 2°36.167 18.9 238 18.3 102110 80
2002-08-26 07:49:07 51°10.61 2°36.183 19.6 232 18.3 102100 80
2002-08-26 07:49:11 51°10.622 2°36.192 17.9 238 18.3 102100 80
2002-08-26 07:49:16 51°10.638 2°36.203 18.1 235 18.3 102110 80
2002-08-26 07:49:22 51°10.657 2°36.217 17.8 235 18.3 102110 80
2002-08-26 07:49:26 51°10.67 2°36.225 16.8 236 18.3 102110 80
2002-08-26 07:49:31 51°10.685 2°36.238 18.3 241 18.3 102110 80
2002-08-26 07:49:36 51°10.701 2°36.248 18 231 18.3 102100 79
2002-08-26 07:49:40 51°10.714 2°36.258 17.6 231 18.3 102100 79
2002-08-26 07:49:46 51°10.733 2°36.27 17.5 231 18.3 102080 79
2002-08-26 07:49:51 51°10.749 2°36.282 18.6 234 18.3 102080 79
2002-08-26 07:49:56 51°10.765 2°36.292 17.8 233 18.3 102100 79
2002-08-26 07:50:00 51°10.778 2°36.302 18.2 232 18.3 102100 79
2002-08-26 07:50:06 51°10.797 2°36.315 15.8 232 18.3 102100 80
2002-08-26 07:50:11 51°10.813 2°36.326 17.7 234 18.3 102100 80
2002-08-26 07:50:16 51°10.829 2°36.338 16.9 233 18.3 102100 79
2002-08-26 07:50:20 51°10.841 2°36.348 18.6 235 18.3 102100 79
2002-08-26 07:50:25 51°10.857 2°36.36 18.5 233 18.3 102100 80
2002-08-26 07:50:31 51°10.875 2°36.376 19.1 236 18.3 102100 80
2002-08-26 07:50:36 51°10.89 2°36.388 17.9 235 18.3 102110 80
2002-08-26 07:50:40 51°10.902 2°36.399 17.8 234 18.3 102110 80
2002-08-26 07:50:46 51°10.92 2°36.414 17.7 232 18.3 102100 80
2002-08-26 07:50:51 51°10.935 2°36.427 16.5 236 18.3 102100 80
2002-08-26 07:50:56 51°10.95 2°36.44 17 232 18.3 102110 79
2002-08-26 07:51:01 51°10.965 2°36.453 15.9 235 18.3 102110 79
2002-08-26 07:51:06 51°10.98 2°36.467 17.5 234 18.2 102090 79
2002-08-26 07:51:11 51°10.995 2°36.479 18.2 238 18.2 102090 79
2002-08-26 07:51:16 51°11.01 2°36.492 17.8 232 18.2 102100 79
2002-08-26 07:51:20 51°11.022 2°36.502 19.7 235 18.2 102100 79
2002-08-26 07:51:26 51°11.04 2°36.518 18.6 231 18.2 102100 80
2002-08-26 07:51:31 51°11.055 2°36.53 20.5 235 18.2 102100 80
2002-08-26 07:51:40 51°11.082 2°36.554 19 238 18.2 102090 80
2002-08-26 07:51:45 51°11.097 2°36.567 18.3 233 18.2 102090 79
2002-08-26 07:51:50 51°11.112 2°36.58 18.2 236 18.2 102090 79
2002-08-26 07:51:55 51°11.127 2°36.593 17.8 232 18.2 102090 78
2002-08-26 07:52:00 51°11.142 2°36.606 18.6 240 18.2 102090 78
2002-08-26 07:52:05 51°11.157 2°36.618 18.5 232 18.1 102100 78
2002-08-26 07:52:10 51°11.172 2°36.632 17.5 238 18.1 102100 78
2002-08-26 07:52:15 51°11.187 2°36.644 16.7 233 18.1 102070 78
2002-08-26 07:52:20 51°11.202 2°36.658 17.5 237 18.1 102070 78
2002-08-26 07:52:24 51°11.214 2°36.667 19.7 232 18.1 102100 79
2002-08-26 07:52:31 51°11.235 2°36.685 18.1 238 18.1 102100 79
2002-08-26 07:52:35 51°11.247 2°36.695 17.1 233 18.2 102100 79
2002-08-26 07:52:40 51°11.262 2°36.708 19.1 237 18.2 102100 79
2002-08-26 07:52:45 51°11.277 2°36.72 18.8 235 18.2 102090 79
2002-08-26 07:52:50 51°11.292 2°36.733 19 235 18.2 102090 79
2002-08-26 07:52:55 51°11.307 2°36.746 19.2 233 18.2 102110 79
2002-08-26 07:53:00 51°11.322 2°36.759 18.1 234 18.2 102110 79
2002-08-26 07:53:05 51°11.337 2°36.771 18.1 232 18.2 102090 79
2002-08-26 07:53:11 51°11.355 2°36.787 18.4 232 18.2 102090 79
2002-08-26 07:53:15 51°11.367 2°36.797 18.6 231 18.2 102090 79
2002-08-26 07:53:20 51°11.382 2°36.811 19.6 239 18.2 102090 79
2002-08-26 07:53:24 51°11.394 2°36.82 18.6 233 18.2 102070 79
2002-08-26 07:53:31 51°11.415 2°36.839 17.6 237 18.2 102070 79
2002-08-26 07:53:35 51°11.426 2°36.85 18.3 234 18.1 102100 79
2002-08-26 07:53:40 51°11.441 2°36.863 19.7 238 18.1 102100 79
2002-08-26 07:53:45 51°11.456 2°36.876 19.6 237 18.1 102100 78
2002-08-26 07:53:50 51°11.471 2°36.888 18.7 238 18.1 102100 78
2002-08-26 07:53:55 51°11.486 2°36.901 17.9 238 18.1 102090 79
2002-08-26 07:54:00 51°11.501 2°36.913 17.8 238 18.1 102090 79
2002-08-26 07:54:05 51°11.516 2°36.926 18 238 18.1 102070 78
2002-08-26 07:54:10 51°11.531 2°36.938 17.4 231 18.1 102070 78
2002-08-26 07:54:15 51°11.546 2°36.952 17.1 235 18.1 102080 78
2002-08-26 07:54:20 51°11.561 2°36.963 16.8 235 18.1 102080 78
2002-08-26 07:54:25 51°11.576 2°36.977 18.2 240 18.1 102090 79
2002-08-26 07:54:30 51°11.591 2°36.989 17.6 236 18.1 102090 79
2002-08-26 07:54:35 51°11.606 2°37.002 17.7 236 18.2 102070 79
2002-08-26 07:54:40 51°11.621 2°37.013 16.4 235 18.2 102070 79
2002-08-26 07:54:45 51°11.635 2°37.027 18.4 239 18.2 102090 79
2002-08-26 07:54:51 51°11.654 2°37.041 19.5 235 18.2 102090 79
2002-08-26 07:54:55 51°11.665 2°37.053 19 237 18.2 102080 79
2002-08-26 07:55:00 51°11.681 2°37.064 19.4 234 18.2 102080 79
2002-08-26 07:55:04 51°11.692 2°37.075 18.6 236 18.2 102110 79
2002-08-26 07:55:11 51°11.713 2°37.092 18.5 234 18.2 102110 79
2002-08-26 07:55:15 51°11.725 2°37.103 18.6 237 18.2 102080 79
2002-08-26 07:55:20 51°11.74 2°37.115 18 232 18.2 102080 79
2002-08-26 07:55:24 51°11.752 2°37.125 18.2 237 18.2 102080 79
2002-08-26 07:55:31 51°11.773 2°37.143 18 232 18.2 102080 79
2002-08-26 07:55:35 51°11.785 2°37.152 17.6 238 18.2 102080 79
2002-08-26 07:55:40 51°11.8 2°37.165 17.5 235 18.2 102080 79
2002-08-26 07:55:45 51°11.815 2°37.178 18.3 234 18.2 102100 79
2002-08-26 07:55:50 51°11.83 2°37.19 17.5 234 18.2 102100 79
2002-08-26 07:55:55 51°11.845 2°37.203 17.8 235 18.2 102090 79
2002-08-26 07:56:00 51°11.859 2°37.215 17.6 235 18.2 102090 79
2002-08-26 07:56:05 51°11.874 2°37.228 17.4 233 18.2 102100 80
2002-08-26 07:56:07 51°11.88 2°37.232 16.2 236 18.2 102100 80
2002-08-26 07:56:15 51°11.904 2°37.253 17.1 233 18.2 102110 79
2002-08-26 07:56:20 51°11.919 2°37.265 17.5 235 18.2 102110 79
2002-08-26 07:56:24 51°11.931 2°37.276 17.6 233 18.2 102110 79
2002-08-26 07:56:31 51°11.952 2°37.293 17.5 236 18.2 102110 79
2002-08-26 07:56:35 51°11.963 2°37.304 16.6 233 18.2 102090 79
2002-08-26 07:56:40 51°11.979 2°37.315 16.5 236 18.2 102090 79
2002-08-26 07:56:45 51°11.994 2°37.328 17.4 232 18.2 102110 79
2002-08-26 07:56:50 51°12.009 2°37.34 18.1 235 18.2 102110 79
2002-08-26 07:56:55 51°12.024 2°37.354 18.2 236 18.2 102090 80
2002-08-26 07:57:00 51°12.039 2°37.366 17.9 240 18.2 102090 80
2002-08-26 07:57:05 51°12.053 2°37.379 18.3 236 18.3 102100 80
2002-08-26 07:57:11 51°12.072 2°37.393 18.1 239 18.3 102100 80
2002-08-26 07:57:15 51°12.083 2°37.404 18.6 233 18.3 102110 80
2002-08-26 07:57:20 51°12.099 2°37.415 18.8 235 18.3 102110 80
2002-08-26 07:57:24 51°12.111 2°37.426 18.3 235 18.2 102090 80
2002-08-26 07:57:31 51°12.132 2°37.443 18.6 232 18.2 102090 80
2002-08-26 07:57:35 51°12.144 2°37.454 16.8 233 18.3 102110 80
2002-08-26 07:57:40 51°12.159 2°37.464 16.8 237 18.3 102110 80
2002-08-26 07:57:45 51°12.174 2°37.477 16.8 237 18.3 102080 80
2002-08-26 07:57:50 51°12.19 2°37.487 17.6 235 18.3 102080 80
2002-08-26 07:57:55 51°12.205 2°37.5 16.6 240 18.3 102080 80
2002-08-26 07:58:00 51°12.22 2°37.511 17.9 235 18.3 102080 80
2002-08-26 07:58:05 51°12.235 2°37.523 18.3 233 18.3 102090 80
2002-08-26 07:58:10 51°12.251 2°37.533 16.7 230 18.3 102090 80
2002-08-26 07:58:15 51°12.266 2°37.545 17.7 229 18.3 102080 80
2002-08-26 07:58:20 51°12.282 2°37.555 17.1 231 18.3 102080 80
2002-08-26 07:58:25 51°12.297 2°37.568 17.2 227 18.3 102110 80
2002-08-26 07:58:30 51°12.313 2°37.578 18.2 233 18.3 102110 80
2002-08-26 07:58:35 51°12.327 2°37.59 18.7 230 18.3 102090 80
2002-08-26 07:58:40 51°12.343 2°37.6 18.1 231 18.3 102090 80
2002-08-26 07:58:44 51°12.355 2°37.61 16.8 231 18.3 102090 79
2002-08-26 07:58:51 51°12.377 2°37.625 16.3 228 18.3 102090 79
2002-08-26 07:58:55 51°12.389 2°37.636 18.4 232 18.2 102100 79
2002-08-26 07:59:00 51°12.405 2°37.646 18.1 230 18.2 102100 79
2002-08-26 07:59:04 51°12.417 2°37.656 18.4 231 18.2 102090 78
2002-08-26 07:59:10 51°12.436 2°37.668 18.1 230 18.2 102090 78
2002-08-26 07:59:15 51°12.451 2°37.68 18 231 18.1 102090 78
2002-08-26 07:59:20 51°12.466 2°37.691 17.9 231 18.1 102090 78
2002-08-26 07:59:24 51°12.478 2°37.7 18.9 227 18.1 102100 78
2002-08-26 07:59:31 51°12.5 2°37.715 17.5 230 18.1 102100 78
2002-08-26 07:59:35 51°12.512 2°37.725 16.5 229 18.1 102100 78
2002-08-26 07:59:40 51°12.528 2°37.736 17.9 228 18.1 102100 78
2002-08-26 07:59:45 51°12.543 2°37.749 18.3 233 18.1 102110 77
2002-08-26 07:59:50 51°12.559 2°37.759 17 228 18.1 102110 77
2002-08-26 07:59:55 51°12.574 2°37.772 16.7 236 18.1 102100 78
2002-08-26 08:00:00 51°12.589 2°37.782 15.3 233 18.1 102100 78
2002-08-26 08:00:05 51°12.604 2°37.796 16.5 233 18.1 102110 78
2002-08-26 08:00:10 51°12.62 2°37.807 18 229 18.1 102110 78
2002-08-26 08:00:15 51°12.634 2°37.82 19.3 236 18.1 102090 78
2002-08-26 08:00:20 51°12.65 2°37.831 17.8 234 18.1 102090 78
2002-08-26 08:00:25 51°12.665 2°37.844 17.3 238 18.2 102100 79
2002-08-26 08:00:30 51°12.68 2°37.856 18.1 235 18.2 102100 79
2002-08-26 08:00:35 51°12.695 2°37.869 17.8 236 18.2 102100 79
2002-08-26 08:00:40 51°12.71 2°37.881 18.3 238 18.2 102100 79
2002-08-26 08:00:44 51°12.722 2°37.89 17.6 237 18.2 102100 78
2002-08-26 08:00:51 51°12.744 2°37.908 18.2 235 18.2 102100 78
2002-08-26 08:00:55 51°12.756 2°37.917 19.7 238 18.2 102090 78
2002-08-26 08:01:00 51°12.771 2°37.93 19.7 238 18.2 102090 78
2002-08-26 08:01:04 51°12.783 2°37.939 19.3 237 18.2 102090 79
2002-08-26 08:01:10 51°12.801 2°37.954 19.5 239 18.2 102090 79
2002-08-26 08:01:15 51°12.817 2°37.965 18.5 239 18.2 102070 78
2002-08-26 08:01:20 51°12.832 2°37.979 18.7 235 18.2 102070 78
2002-08-26 08:01:24 51°12.844 2°37.988 17.8 238 18.2 102100 78
2002-08-26 08:01:30 51°12.862 2°38.003 18 236 18.2 102100 78
2002-08-26 08:01:35 51°12.878 2°38.014 17.3 237 18.2 102060 77
2002-08-26 08:01:40 51°12.893 2°38.027 16.3 240 18.2 102060 77
2002-08-26 08:01:44 51°12.905 2°38.036 17.3 239 18.2 102090 77
2002-08-26 08:01:50 51°12.924 2°38.051 18.1 244 18.2 102090 77
2002-08-26 08:01:55 51°12.94 2°38.062 18.4 241 18.1 102100 77
2002-08-26 08:02:00 51°12.954 2°38.075 19.6 241 18.1 102100 77
2002-08-26 08:02:04 51°12.966 2°38.084 18.8 240 18.1 102100 77
2002-08-26 08:02:10 51°12.984 2°38.1 19.2 237 18.1 102100 77
2002-08-26 08:02:15 51°13 2°38.11 18.9 243 18.1 102090 78
2002-08-26 08:02:20 51°13.015 2°38.123 18.4 240 18.1 102090 78